Погода в Салдусе

Погода в Салдусе : погода сейчас, прогноз погоды и архив. Всё, что Вы хотите узнать о погоде в Салдусе!

Поиск расширенной информации на нашем сайте:

Другие новости

Новости СМИ2

Главная страница сайта

Новости сайта

03.07.2017

Напоминаем, что на нашем специализированном сайте Метеоцентр.Азия вы можете получить высокодетализированные автоматические прогнозы погоды по пунктам России, СНГ и мира в авиационном формате (включающие направление и скорость ветра, видимость, явления погоды, количество и форму облачности, нижнюю и верхнюю границу облачности).


Погода в Салдусе - сегодня

Время (UTC), дата Ветер
(°,м/с) 
Видим.   Явления Облачность Т
(°С)
Тd
(°С)
f(%) Тe
(°С)
Pmin
(гПа)
dP
(гПа)
Po
(мм)
O2
(г/м3)
Тmin Tmax R s Состояние
почвы
12 19.11.17 180 (Ю) 3-6  н/о    н/о 
+2.7 +1.5 92 +1  996.9  -0.6  737  294           
15 19.11.17 150 (ЮВ) 2-4  н/о    н/о 
+2 +1.8 99 +1  997.1  0.1  737  295           
18 19.11.17 180 (Ю) 2-4  н/о    н/о 
+1.9 +1.4 96 +1  997.3  0.2  738  295           
21 19.11.17 100 (В) 1-1  н/о    н/о 
+1.2 +1.2 100 +2  998.5  1.2  739  296           
00 20.11.17 100 (В) 1-1  н/о    н/о 
+0.4 +0.3 99 +1  999.4  0.8  739  297           
03 20.11.17 060 (СВ) 1-1  н/о    н/о 
+0.1 +0.3 100 +1  1000.4  740  298           
06 20.11.17 350 (С) 1-1  н/о    н/о 
+0.2 +0.1 99 +1  1001.5  741  298           
09 20.11.17 010 (С) 1-1  н/о    н/о 
+0.5 +0.4 99 +1  1003.1  742  298           
12 20.11.17 360 (С) 2-3  н/о    н/о 
+2.1 +1.3 94 +1  1003.9  0.9  743  297           
15 20.11.17 340 (С) 3-4  н/о    н/о 
+2.2 +1.5 95 +1  1005.4  1.4  744  297           
18 20.11.17 340 (С) 1-2  н/о    н/о 
+1.2 -0.2 90 +2  1006.5  1.1  744  299           
21 20.11.17 250 (З) 2-2  н/о    н/о 
+0.3 -0.2 96 1007.4  0.9  745  300           
00 21.11.17 240 (ЮЗ) 1-2  н/о    н/о 
+0.2 -0.2 97 +1  1007.7  0.3  745  300           
03 21.11.17 270 (З) 1-2  н/о    н/о 
-0.1 +0.1 100 +1  1008.2  0.4  746  300           
06 21.11.17 200 (Ю) 1-2  н/о    н/о 
-0.4 -0.3 100 1008.6  0.4  746  301           
09 21.11.17 тихо () -1  н/о    н/о 
+0 -0.1 99 1009.3  0.6  746  301           
12 21.11.17 260 (З) 2-2  н/о    н/о 
+0.9 +0.9 100 1009.1  -0.1  746  300           
15 21.11.17 230 (ЮЗ) 2-3  н/о    н/о 
+0.9 +0.5 97 1009.3  746  300           
18 21.11.17 210 (ЮЗ) 1-2  н/о    н/о 
+0.1 -1 92 +1  1009.9  747  301           
00 22.11.17 190 (Ю) 1-2  н/о    н/о 
-2.4 -3 96 -2  1011.4  748  304           
09 22.11.17 190 (Ю) 2-3  н/о    н/о 
-0.4 -0.3 100 -1  1013.4  749  302           
12 22.11.17 170 (Ю) 2-4  н/о    н/о 
-0.5 -0.8 98 -1  1013.8  0.3  750  303           
15 22.11.17 170 (Ю) 4-6  н/о    н/о 
-0.6 -1.4 94 -3  1014.2  750  303           
18 22.11.17 160 (Ю) 4-8  н/о    н/о 
-1 -2.1 92 -4  1014  -0.2  750  303           
21 22.11.17 150 (ЮВ) 4-7  н/о    н/о 
-1 -2.3 91 -4  1013.2  -0.7  749  303           
Время (UTC), дата Ветер
(°,м/с) 
Видим.   Явления Облачность Т
(°С)
Тd
(°С)
f(%) Тe
(°С)
Pmin
(гПа)
dP
(гПа)
Po
(мм)
O2
(г/м3)
Тmin Tmax R s Состояние
почвы

Для получения пояснительной информации подведите курсор к названию столбца.

ПОГОДА в Салдусе - архив

Всё, что Вы хотите узнать о погоде в Салдусе - удобно и подробно!

Выберите нужную дату (начиная с 1 января 2015* года) и нажмите кнопку "Найти".
Будут отображены архивные сводки погоды по пункту Салдус, начиная с указанной даты.


Отображать данные в формате CSV (для использования в таблицах Excel)


Внимание! Наш архив погоды предназначен исключительно для личного некоммерческого использования в познавательных целях. Если Вам необходимы официальные справки о состоянии погоды (для производственных, юридических, коммерческих и т.п. целей), обращайтесь в органы Росгидромета.

*Примечание: данная дата относится к архиву по метеостанциям СССР (Россия, СНГ, Балтия).
Архив по метеостанциям Зарубежной Европы и Азии (кроме Китая) хранится 10 дней, по другим регионам земного шара (Китай, Африка, Америка, Австралия, Океания) - 1 день.

Салдус - район местоположения метеостанции


Название, широта, долгота, высота метеостанции:
Салдус 56.7°ш. 22.5°д. 112 м над ур. моря [Латвия]

Дополнительная информация

В oтличие oт бoльшинства пoгoдных сайтoв мы публикуем пoдрoбную метеoинфoрмацию в детальнoм прoфессиoнальнoм фoрмате.

Характеристики температуры и влажнoсти вoздуха измеряются на высoте 2 м в тени вдали oт зданий и деревьев.
Скoрoсть ветра измеряется на высoте 10 м (на урoвне рoста челoвека скoрoсть ветра ниже в 1.5-2 раза). Если метеoстанция нахoдится в гoрoде или в лесу, тo скoрoсть ветра занижена на 2-4 м/с пo сравнению с oткрытым местoм. Скoрoсть ветра над акватoриями крупных рек и oзёр, а также на вершинах хoлмoв на 2-5 м/с выше, чем в oбычных услoвиях.
Атмoсфернoе давление в разных тoчках местнoсти мoжет значительнo oтличаться oт давления на метеoстанции, в зависимoсти oт услoвий рельефа (при пoдъёме на 10 м давление пoнижается примернo на 1 мм рт.ст.).